Location: Lachepaillet
(43.4918°N, 1.4874°W)
Time: 01:02:10
(UTC+00:00)

Cosmos 1513 Rocket - Pass Details

Date: 15 May 2026
Orbit: 938 x 1008 km, 82.9° (Epoch: 9 June)

Event Time Altitude Azimuth Distance (km) Brightness Sun altitude
Exits shadow 21:15:01 16° 178° (S) 2,278 6.0 -16.7°
Maximum altitude 21:20:01 75° 95° (E) 997 4.4 -17.2°
Drops below altitude 10° 21:26:09 10° 11° (N) 2,687 7.3 -17.9°
Sets 21:28:38 0° 10° (N) 3,629 8.1 -18.2°
